Theta_e
303 303 302 302 302 301 301 301 301 301 301 300 300 299 299 299 298 298 298 297 297 297 297 296 296 296 296 296 296 296 296 296 296 296 295 295 295 295 294 293 292 291 290 289 288 288 288 288 288 288 288 288 288 288 288 288 288 288 288 288 288 289 289 289 289 290 290 290 291 291 291 291 291 291 291 291 291 290 290 290 290 290 291 291 292 293
302 302 302 301 301 301 301 301 301 301 300 300 299 299 299 298 298 297 297 297 296 296 296 296 296 296 296 296 295 295 295 295 295 295 294 294 293 293 292 290 289 288 288 288 288 288 288 288 288 288 288 288 288 288 288 289 289 289 289 289 289 289 289 289 289 289 289 289 289 289 289 289 289 289 289 289 289 289 289 289 289 289 290 290 291 292
301 301 301 301 301 301 301 301 301 300 300 300 299 299 298 298 297 297 297 296 296 296 296 296 296 295 295 295 295 295 294 294 293 293 292 291 290 289 289 288 287 287 287 287 288 288 288 288 288 288 288 288 289 289 289 289 289 289 289 289 289 289 289 289 289 289 289 289 289 289 288 288 288 288 288 288 288 288 288 289 289 289 289 290 291 291
301 301 301 301 301 301 301 301 300 300 299 299 299 298 298 297 297 297 296 296 296 296 296 296 296 295 295 295 294 293 293 292 291 290 289 288 288 287 287 287 287 287 287 287 287 287 288 288 288 288 288 289 289 289 289 289 289 289 289 289 289 289 289 289 289 289 289 289 289 289 289 289 289 288 288 288 289 289 289 289 289 289 289 290 290 290
301 301 301 301 300 300 300 300 300 299 299 299 299 298 298 297 297 296 296 296 296 296 296 296 295 295 294 294 293 292 291 290 289 288 287 287 286 286 286 286 286 286 286 286 287 287 287 287 288 288 288 288 289 289 289 289 289 289 289 289 289 289 289 289 289 289 289 289 289 289 289 289 289 289 289 289 289 288 289 288 289 289 289 289 289 289
301 301 300 300 300 300 299 299 299 299 299 299 298 298 298 297 297 296 296 296 296 296 296 295 295 294 294 293 292 291 290 289 288 287 287 286 286 286 286 286 286 286 286 286 286 287 287 287 288 288 288 288 289 289 289 289 289 289 289 289 289 289 289 289 289 289 289 289 289 289 289 289 289 288 288 288 288 288 289 289 289 289 289 289 289 289
300 300 300 300 299 299 299 298 298 298 298 298 298 297 297 297 296 296 296 296 295 295 295 295 294 293 292 291 290 290 289 288 288 287 287 286 286 286 286 285 285 285 285 286 286 287 287 288 288 288 289 289 289 289 289 289 289 289 289 289 289 289 289 288 288 288 288 288 288 288 288 288 288 288 288 288 289 289 289 289 289 289 289 289 289 289
299 299 299 299 298 298 298 298 298 297 297 297 297 297 296 296 296 295 295 295 294 294 293 293 292 291 290 289 289 288 288 287 287 287 286 286 286 285 285 285 285 285 285 286 286 287 287 288 288 288 288 288 288 288 288 288 288 288 288 288 288 288 288 288 288 288 288 288 288 288 288 288 288 289 289 289 289 289 289 289 289 289 289 289 289 289
298 298 298 298 298 297 297 297 297 297 296 296 296 296 295 295 295 294 294 293 292 291 290 290 289 289 288 288 288 287 287 287 287 286 286 286 285 285 285 285 285 285 285 286 286 287 287 287 288 288 288 288 288 288 288 288 288 288 288 288 288 287 287 288 288 288 288 288 288 288 289 289 289 289 289 289 289 289 289 289 289 289 289 289 289 289
297 297 297 297 297 297 296 296 296 296 296 296 295 295 295 294 293 292 291 290 289 289 288 288 288 288 288 287 287 287 287 287 286 286 286 285 285 285 285 285 285 285 285 286 286 287 287 287 287 288 288 288 288 288 288 288 287 287 287 287 287 288 288 288 288 288 288 288 289 289 289 289 289 289 289 289 289 289 289 289 289 289 289 289 289 289
297 297 297 296 296 296 296 295 295 295 295 295 294 293 292 291 290 290 289 288 288 288 288 288 288 288 287 287 287 287 287 286 286 286 285 285 285 284 284 284 285 285 286 286 286 287 287 287 287 287 287 287 287 287 287 287 287 287 287 287 288 288 288 288 288 288 289 289 289 289 289 289 289 289 289 289 289 289 288 288 289 289 289 289 289 289
297 296 296 296 296 295 295 294 294 293 293 292 291 290 289 289 289 288 288 288 288 288 288 288 287 287 287 287 287 287 286 286 286 285 285 285 284 284 284 285 285 286 286 286 286 287 287 287 287 287 287 287 287 287 287 287 287 287 288 288 288 288 288 288 289 289 289 289 289 289 289 289 289 289 289 289 289 288 288 288 288 288 288 289 289 289
297 296 296 295 295 294 293 292 291 290 290 289 289 289 288 288 288 288 288 288 288 288 288 288 287 287 287 287 287 286 286 285 285 285 285 284 284 284 285 285 286 286 286 286 286 286 286 287 287 287 287 287 287 287 287 287 288 288 288 288 288 288 288 289 289 289 289 289 289 289 289 289 289 289 289 289 289 288 288 288 288 288 288 289 289 289
296 296 295 294 293 292 291 290 289 289 289 289 288 289 289 288 288 288 288 288 288 288 288 287 287 287 287 287 286 286 285 285 284 284 284 284 284 285 285 286 286 286 286 286 286 286 286 287 287 287 287 287 287 287 287 288 288 288 288 288 288 288 289 289 289 289 289 289 289 289 289 289 289 289 289 289 289 289 289 289 289 289 289 289 289 289
294 293 292 291 290 289 289 289 289 289 289 289 289 288 288 288 288 288 288 288 288 288 287 287 287 287 287 286 286 285 285 284 284 284 284 284 285 285 286 286 286 286 286 286 286 286 286 287 287 287 287 287 287 287 288 288 288 288 288 288 289 289 289 289 289 289 289 289 289 289 289 289 289 289 289 289 289 289 289 289 289 289 289 289 289 289
291 290 290 289 289 289 289 289 289 289 289 289 289 288 288 288 288 288 288 288 288 288 287 287 287 287 286 286 285 285 284 284 284 284 284 285 285 286 286 286 286 286 286 286 286 286 287 287 287 287 287 287 287 288 288 288 288 288 288 288 289 289 289 289 289 289 289 289 289 289 289 289 289 289 289 289 289 289 289 289 289 289 289 289 289 289
289 289 289 289 289 289 289 289 289 289 289 289 289 288 288 288 288 288 288 288 288 287 287 287 287 286 286 285 284 284 284 284 284 284 284 285 286 286 286 286 286 286 286 286 286 287 287 287 287 287 287 287 288 288 288 288 288 288 289 289 289 289 289 289 289 289 289 289 289 289 289 289 289 289 289 289 289 289 289 289 289 289 289 289 289 289
289 289 289 289 289 289 289 289 289 289 289 289 289 288 288 288 288 288 288 288 287 287 287 286 286 285 285 284 284 284 284 284 284 284 284 285 286 286 286 286 286 287 287 287 287 287 287 287 287 287 287 288 288 288 288 288 288 288 289 289 289 289 289 289 289 289 289 289 289 289 289 289 289 289 289 289 289 289 289 289 289 289 289 289 289 289
289 289 289 289 289 289 289 289 289 289 288 288 288 288 288 288 287 287 287 287 286 286 286 285 285 285 284 284 284 284 284 283 283 284 285 286 286 287 286 286 286 287 287 287 287 287 287 287 287 287 288 288 288 288 288 288 288 289 289 289 289 289 289 289 289 289 289 289 289 289 289 289 289 289 289 289 289 289 289 289 289 289 289 289 289 289
288 288 288 288 289 289 289 288 288 288 288 288 287 287 287 287 287 286 286 286 286 285 285 285 285 285 284 284 284 284 283 283 283 284 285 286 287 287 286 286 287 287 287 287 287 287 287 287 287 287 288 288 288 288 288 288 288 289 289 289 289 289 289 289 288 288 288 288 288 289 289 289 289 289 289 289 289 289 289 289 289 289 289 289 289 289
288 288 287 287 287 288 288 288 288 288 287 287 287 287 287 286 286 286 286 286 285 285 285 285 285 284 284 284 284 283 283 283 283 284 285 286 287 287 287 287 287 287 287 287 287 287 287 287 288 288 288 288 288 288 288 288 288 289 289 289 288 288 288 288 288 288 288 288 288 288 288 289 289 289 289 289 289 289 289 289 289 289 289 289 289 289
287 287 287 287 287 287 287 287 287 287 287 287 287 286 286 286 286 286 286 285 285 285 285 285 284 284 284 283 283 283 282 283 283 284 285 286 287 287 287 287 287 287 288 288 287 287 287 288 288 288 288 288 288 288 288 288 288 288 288 288 288 288 288 288 288 288 288 288 288 288 289 289 289 289 289 289 289 289 289 289 289 289 289 289 289 288
287 287 287 287 287 286 286 286 286 286 286 286 286 286 285 285 285 285 285 284 284 284 284 283 283 283 283 283 283 283 283 283 284 284 285 286 287 287 287 287 287 287 288 288 288 288 288 288 288 288 288 288 288 288 288 288 288 288 288 288 288 288 288 288 288 288 288 288 288 289 289 289 289 289 289 289 289 289 289 289 289 289 289 289 289 289
286 286 286 285 285 285 285 285 285 285 285 285 284 284 284 284 283 283 283 283 283 283 283 283 283 283 282 283 283 283 283 284 284 285 285 286 287 287 287 287 287 288 288 288 288 288 288 288 288 288 288 288 288 288 288 288 288 288 288 288 288 288 288 288 288 288 288 289 289 289 289 289 289 289 289 289 289 289 289 289 289 289 289 289 289 288
285 285 285 285 285 285 285 284 284 284 284 284 284 283 283 283 283 283 283 283 283 283 283 283 283 283 283 283 283 284 284 285 285 285 285 286 286 287 287 287 287 288 288 288 288 288 288 288 288 288 288 288 288 288 288 289 289 288 288 288 288 288 288 288 288 288 289 289 289 289 289 289 289 289 289 289 289 289 289 289 289 289 289 289 288 288
285 285 285 285 285 285 284 284 284 284 284 284 283 283 283 283 283 283 283 283 283 283 283 283 283 283 283 284 284 285 285 285 285 285 285 286 286 287 287 287 287 288 288 288 288 288 288 289 289 288 288 288 288 289 289 289 289 289 288 288 288 288 288 288 289 289 289 289 289 289 289 289 289 289 289 289 289 289 289 289 289 289 289 288 288 288
284 284 284 284 284 284 284 284 283 283 283 283 283 283 283 283 283 283 283 283 283 283 283 283 283 283 284 285 285 286 286 286 286 286 286 286 286 287 287 287 287 287 288 288 288 288 288 289 289 289 289 289 289 289 289 289 289 289 289 289 289 289 289 289 289 289 289 289 289 289 289 289 289 289 289 289 289 289 289 289 289 289 288 288 288 288
284 284 284 284 284 283 283 283 283 282 282 282 282 282 282 282 282 282 283 283 283 283 283 283 283 284 284 285 286 286 286 286 286 286 286 286 286 287 287 287 287 287 287 288 288 288 288 288 289 289 289 289 289 289 289 289 289 289 289 289 289 289 289 289 289 289 289 289 289 289 289 289 289 289 289 289 289 289 289 289 289 288 288 288 288 288
284 283 283 283 283 283 283 283 282 282 282 282 282 282 281 281 281 282 282 282 282 282 283 283 283 284 284 285 285 286 286 286 286 286 286 286 286 286 286 286 286 286 287 287 288 288 289 288 288 289 289 289 289 289 289 289 289 289 289 289 289 289 289 289 289 289 289 289 289 289 289 289 289 289 289 289 289 289 289 288 288 288 288 288 288 288
283 283 283 283 282 282 282 282 282 282 282 282 282 281 281 281 281 281 282 282 282 283 283 284 284 284 285 285 285 286 286 286 286 285 286 286 286 286 286 286 286 286 286 287 288 289 289 289 289 289 289 289 289 289 289 289 289 289 289 289 289 289 289 289 289 289 289 289 289 289 289 289 289 289 289 289 289 288 288 288 288 288 288 288 288 288
282 282 282 282 282 282 282 282 281 281 281 281 281 281 281 281 281 282 282 283 283 283 284 284 284 285 285 284 284 284 285 286 285 285 285 285 285 286 286 286 286 286 286 286 286 287 288 289 289 289 289 289 289 289 289 289 289 289 290 290 290 290 290 290 290 290 290 289 289 289 289 289 289 289 289 288 288 288 288 288 287 287 287 287 288 288
282 281 281 281 281 281 281 281 281 281 281 281 281 281 281 282 282 282 283 283 284 284 284 284 285 285 285 284 284 284 285 285 285 285 285 285 285 286 286 286 286 286 286 286 286 286 287 288 289 289 289 289 290 290 290 290 290 290 290 290 290 290 290 290 290 290 290 289 289 289 289 289 289 289 288 288 288 288 287 287 287 287 287 287 287 287
281 281 281 281 281 281 281 281 281 281 281 281 281 281 282 282 283 283 284 284 284 284 284 284 285 285 285 285 285 285 285 285 285 285 285 285 285 285 286 286 286 286 286 287 287 286 287 288 289 290 290 290 290 290 290 290 290 290 290 290 290 290 290 290 290 289 289 289 289 289 289 289 288 288 288 288 288 287 287 287 287 287 287 287 287 287
281 281 281 281 281 281 281 281 281 281 281 281 281 282 282 283 283 284 284 284 284 285 285 285 285 284 284 284 285 285 285 285 285 284 284 284 284 285 285 285 286 286 286 286 287 287 288 289 289 290 291 291 290 290 290 290 290 290 290 290 290 290 290 290 290 289 289 289 289 289 289 288 288 288 288 288 287 287 287 287 287 286 286 286 286 286
281 281 281 281 281 281 281 281 281 281 281 281 282 282 283 283 284 284 284 285 285 285 285 285 285 285 284 284 284 285 285 285 285 284 284 284 284 284 285 285 285 285 285 286 286 287 288 289 289 290 290 291 291 291 290 290 290 290 290 290 290 290 290 290 290 289 289 289 289 289 289 288 288 288 288 287 287 287 287 287 287 286 286 286 285 285
281 281 281 281 281 281 281 281 281 281 281 282 282 283 283 284 284 284 285 285 285 285 285 285 285 285 285 284 284 285 285 285 285 284 284 284 284 284 284 285 285 285 285 285 286 287 287 288 289 289 289 290 291 291 291 290 290 290 290 290 290 290 290 290 289 289 289 289 289 289 289 288 288 288 288 287 287 287 287 287 286 286 286 286 285 285
281 281 281 281 281 281 281 281 281 281 281 282 282 283 283 284 284 285 285 285 285 285 285 285 285 285 285 285 285 285 285 285 285 285 285 284 284 284 284 285 285 285 285 285 286 286 287 287 288 289 289 289 290 291 291 291 291 291 290 290 290 290 290 290 289 289 289 289 289 289 288 288 288 288 287 287 287 287 287 286 286 286 286 285 285 285
281 281 281 281 281 281 281 281 281 281 282 282 283 283 284 284 285 285 285 285 285 285 285 285 285 285 284 285 285 285 285 285 285 285 285 285 285 284 285 285 286 286 286 286 286 286 286 286 287 288 288 289 289 290 290 290 290 290 290 290 290 290 290 290 289 289 289 289 288 288 288 288 287 287 287 287 287 286 286 286 286 286 286 285 285 285
281 281 281 281 281 281 281 281 281 282 282 283 283 284 284 285 285 285 285 285 285 285 285 285 285 285 285 285 285 285 285 285 285 285 285 285 285 285 285 285 285 286 286 286 286 286 286 286 286 286 287 288 289 289 289 289 289 290 290 290 290 290 290 289 289 289 288 288 288 288 287 287 287 287 286 286 286 286 286 286 286 286 285 285 285 285
281 281 281 281 281 281 281 281 282 282 283 283 284 284 285 285 285 285 285 285 285 285 285 285 285 285 285 285 285 285 285 285 285 285 285 285 285 285 285 285 286 286 286 286 286 286 286 286 286 287 287 287 287 288 288 288 289 289 289 289 289 289 289 288 288 288 288 287 287 287 287 286 286 286 286 286 286 285 285 285 286 285 285 285 285 285
281 281 281 281 281 281 281 282 282 283 284 284 284 285 285 285 285 285 285 285 285 285 285 285 285 285 285 285 285 285 285 285 285 285 285 285 285 285 285 285 286 286 286 286 286 286 287 286 286 286 286 287 287 287 288 288 288 288 287 287 287 288 288 288 287 287 287 287 286 286 286 286 286 285 285 285 285 285 285 285 285 285 285 285 285 285
281 281 281 281 281 281 281 282 283 284 284 285 285 285 285 285 285 285 285 285 285 285 285 285 285 285 285 285 285 285 285 285 285 285 285 285 285 285 285 285 286 286 286 286 286 286 286 286 286 286 286 286 286 286 287 287 287 287 286 286 286 287 287 287 287 286 286 286 286 286 285 285 285 285 285 285 285 285 285 285 285 285 285 285 285 285
281 281 281 281 281 281 282 283 284 284 285 285 285 285 285 285 285 285 285 285 285 285 285 285 285 286 286 286 286 286 286 286 286 286 285 285 285 285 285 286 286 286 286 286 286 286 286 286 286 286 286 286 285 285 286 286 287 287 286 286 285 285 285 286 286 286 285 285 286 285 285 285 285 285 285 285 285 285 285 285 285 285 285 285 285 285
281 281 281 281 281 282 283 283 284 284 285 285 285 285 285 285 285 285 285 285 285 285 285 285 285 286 286 286 286 286 286 286 286 286 286 286 285 285 285 286 286 286 286 285 286 286 286 286 286 286 285 285 285 285 285 285 286 286 286 285 285 284 284 285 285 285 285 285 286 285 285 285 284 284 285 285 285 285 285 285 285 285 285 285 284 284
281 281 281 281 282 282 283 284 284 284 285 285 285 285 285 285 285 285 285 285 285 285 285 285 285 285 285 286 286 286 286 286 286 286 285 285 285 285 285 285 285 285 286 286 285 285 285 285 286 285 285 285 284 284 284 285 285 285 285 285 285 284 284 285 285 285 285 285 285 285 285 284 284 284 284 285 285 285 285 285 285 285 285 284 284 284
281 281 281 282 282 283 284 284 284 285 285 285 285 285 285 285 285 285 285 285 285 285 285 285 285 284 285 285 285 286 286 286 286 286 285 285 285 285 285 285 285 285 285 285 285 285 285 285 285 285 285 284 284 284 284 284 284 285 285 285 285 284 285 285 285 285 285 285 285 285 285 284 284 284 284 284 284 284 284 284 284 284 284 284 283 283
281 281 282 282 283 284 284 284 284 285 285 285 285 285 285 285 285 284 284 284 285 285 285 285 284 284 284 285 285 285 286 286 287 286 286 286 285 285 285 285 285 285 285 285 285 285 285 285 284 284 284 284 284 285 285 285 284 284 284 285 284 284 284 285 285 285 285 285 285 285 284 284 283 283 283 283 283 283 284 284 283 283 283 283 283 283
281 282 282 283 283 284 284 285 285 285 285 285 285 285 285 284 284 284 284 284 284 284 284 284 284 284 284 284 285 285 285 286 286 287 287 286 286 286 286 285 285 285 285 285 285 285 285 285 284 284 284 284 284 284 285 285 285 284 284 284 284 284 284 285 285 285 284 284 284 284 283 283 282 282 283 283 283 283 283 283 283 283 283 283 283 283
282 282 283 284 284 284 285 285 285 285 285 285 285 285 285 284 284 284 284 284 284 284 284 283 283 283 284 284 285 285 285 285 286 286 287 286 286 286 286 286 285 285 285 285 285 284 284 284 284 284 284 284 284 284 285 285 285 284 284 284 284 284 284 284 284 284 284 284 283 283 282 282 282 282 282 282 283 283 283 283 283 283 283 284 284 284
282 283 283 284 284 285 285 285 285 285 285 284 284 284 284 284 284 284 284 284 284 284 284 283 283 283 284 284 285 285 285 285 286 286 286 286 286 286 286 285 285 285 285 284 284 284 284 284 284 284 284 284 284 284 284 284 284 284 284 284 284 283 283 284 284 284 283 283 283 282 282 282 282 282 282 282 282 282 283 283 283 283 284 284 284 284
283 283 284 284 285 285 285 285 284 284 284 284 284 284 284 284 284 284 284 284 284 284 284 284 283 283 283 284 284 285 285 285 286 286 286 286 286 286 286 286 285 285 284 284 283 283 283 282 283 284 284 284 284 284 284 284 284 284 283 284 284 283 283 283 283 283 283 283 283 282 282 282 282 282 282 282 282 282 282 283 283 283 284 284 284 284
Wind_Speed
22 20 19 17 16 16 18 18 17 16 17 19 21 23 25 25 25 24 23 22 22 22 22 22 22 21 20 20 19 19 19 18 18 18 18 18 18 18 18 18 18 18 19 19 19 19 19 19 19 19 19 19 18 18 18 18 17 17 17 17 17 16 16 16 16 16 16 16 16 17 17 18 18 19 20 20 20 20 19 19 18 18 17 17 16 16
19 19 18 19 18 19 19 18 17 15 14 16 17 18 19 20 20 20 20 20 20 21 21 21 21 20 19 19 18 18 17 17 17 17 17 17 16 16 16 17 17 18 18 18 18 18 18 18 18 18 17 17 17 17 17 16 16 16 16 16 16 15 15 15 15 15 16 16 17 17 18 18 19 19 19 18 18 18 18 17 17 16 16 16 16 16
19 19 20 20 20 19 18 17 15 13 13 13 13 14 15 16 17 18 18 18 19 20 20 20 20 19 18 18 17 17 16 16 15 15 15 15 15 15 16 16 17 17 18 18 17 17 17 17 17 17 17 16 16 16 16 15 15 15 15 15 14 14 14 14 14 15 15 16 16 17 17 17 16 16 16 16 15 15 15 15 15 15 15 16 16 16
19 19 19 19 18 17 16 14 13 12 11 12 12 12 13 14 15 16 16 17 18 19 19 19 18 18 17 17 16 16 15 14 14 13 13 13 14 15 16 17 17 18 18 18 18 18 17 17 17 17 16 16 16 15 15 14 14 14 13 13 14 14 14 14 14 15 15 16 16 16 15 15 14 14 14 13 13 13 13 14 14 15 15 16 16 17
16 16 16 15 14 14 13 12 11 11 11 11 11 12 12 13 14 15 16 17 18 18 18 18 17 17 16 16 15 14 14 13 12 12 12 13 14 15 16 17 17 18 18 18 18 17 17 17 16 16 15 15 14 13 13 13 13 13 13 13 14 14 14 14 15 15 15 15 15 15 14 14 13 13 13 13 13 13 14 14 15 15 16 16 17 17
11 11 11 11 11 11 11 10 10 10 10 10 11 11 12 12 13 14 15 16 16 17 17 17 17 16 16 15 14 14 13 12 12 12 12 13 14 15 16 17 17 17 18 18 17 16 16 15 14 14 13 13 12 12 12 12 13 13 14 15 15 15 15 15 15 15 15 14 14 14 14 14 13 13 13 14 14 14 15 15 16 16 16 17 17 17
7 8 8 9 9 9 9 9 9 9 9 10 10 11 11 12 13 14 14 15 15 15 16 16 16 15 15 14 13 13 12 12 12 12 13 14 15 15 16 16 17 17 17 16 16 15 14 13 12 12 12 12 12 13 13 14 15 16 16 17 17 16 16 15 15 15 14 14 14 14 14 14 14 14 15 15 15 16 16 16 17 17 17 18 18 18
5 6 7 7 8 8 9 9 9 9 9 9 10 11 11 12 13 13 13 14 14 14 14 14 14 14 12 12 11 11 11 11 11 12 13 14 15 16 16 16 16 16 15 15 14 13 13 12 12 12 12 13 14 15 15 16 17 17 17 17 17 16 16 15 15 15 15 14 14 14 15 15 15 16 16 16 17 17 17 18 18 18 19 19 19 19
4 5 6 7 7 7 7 8 8 9 9 9 10 11 11 12 12 12 13 12 12 12 12 12 11 10 10 10 10 11 11 12 12 13 14 15 16 16 16 16 16 15 15 15 14 14 14 14 14 14 15 15 16 17 17 18 18 18 17 17 16 16 15 15 15 15 14 15 15 15 15 16 16 17 17 17 18 18 19 19 19 19 19 19 19 19
4 5 6 6 7 7 7 8 9 9 10 10 11 11 11 11 11 11 10 10 9 10 10 9 9 8 9 10 11 11 12 13 14 14 15 16 16 17 17 17 16 15 15 15 15 15 15 15 16 16 17 17 17 18 18 18 17 17 16 15 15 15 14 14 14 14 14 15 15 16 16 16 17 17 18 18 19 19 19 20 20 20 20 20 20 19
5 6 6 7 7 8 8 9 9 10 10 11 11 11 11 10 10 9 8 7 7 7 7 8 8 9 10 12 12 13 13 14 14 15 16 16 17 17 17 17 16 15 14 14 14 15 15 16 16 17 17 17 17 17 16 16 15 15 14 14 14 14 14 14 14 14 15 15 16 16 17 17 17 18 18 19 19 19 19 19 20 20 20 19 19 19
7 8 8 8 8 9 9 9 10 11 10 10 9 9 8 8 8 8 8 8 7 7 8 9 10 11 12 13 14 15 15 15 16 16 16 17 17 17 16 16 15 14 13 13 13 14 14 15 16 16 16 16 16 15 15 14 13 13 13 13 13 13 13 14 14 15 15 16 16 17 17 18 18 18 19 19 19 19 19 19 19 19 19 19 19 19
10 10 10 10 10 9 8 8 8 8 8 8 7 6 6 6 7 7 8 9 9 9 10 11 12 13 14 15 15 16 16 17 17 17 17 17 16 15 15 14 14 13 13 13 13 14 14 15 16 16 15 15 14 13 12 12 11 11 12 12 12 13 14 14 15 15 16 16 17 17 18 18 18 19 19 19 19 19 19 19 19 19 19 19 19 19
11 12 11 10 9 8 7 6 6 6 6 6 6 6 7 7 8 8 9 10 11 11 12 13 14 14 15 16 17 17 17 18 18 18 18 16 15 13 13 13 13 13 13 13 13 14 15 15 15 15 14 13 12 11 11 10 10 10 11 12 12 13 14 14 15 16 16 17 17 18 19 19 19 19 19 19 19 19 19 19 20 20 20 20 20 20
10 9 7 6 6 5 5 5 5 5 5 6 6 7 8 9 10 10 11 12 13 13 14 15 16 16 17 17 17 17 17 18 18 19 18 15 13 11 12 12 13 13 13 13 13 14 14 14 14 13 12 12 11 10 10 10 10 10 11 12 12 13 14 15 16 16 17 18 18 19 19 19 19 19 19 19 19 20 20 20 20 20 20 20 20 20
6 5 5 5 5 5 5 5 5 6 6 7 8 9 10 11 11 12 13 13 14 15 16 17 18 18 18 17 17 16 17 17 18 19 17 14 11 10 11 12 12 12 12 12 13 13 13 13 13 12 11 11 11 10 10 10 10 10 11 12 12 13 14 15 16 17 17 18 19 19 20 20 20 20 20 20 20 20 20 21 21 21 21 21 21 21
5 5 5 5 5 5 6 6 7 8 8 9 10 11 12 12 13 14 14 15 16 17 18 18 19 20 19 18 16 16 16 18 19 18 16 13 10 9 10 12 13 12 11 11 11 11 12 12 12 12 11 11 11 11 10 10 10 11 11 12 13 13 14 14 15 16 17 18 18 19 19 19 19 20 20 20 21 21 21 22 22 22 22 22 22 22
5 5 5 5 6 7 8 8 9 10 11 12 12 13 14 14 15 16 16 17 18 18 19 19 20 20 21 20 18 17 17 18 19 19 16 13 10 9 10 12 12 12 11 10 10 11 11 12 12 12 12 12 12 11 11 11 11 12 12 13 13 13 14 14 14 15 16 16 17 17 18 18 19 19 20 21 21 22 22 23 23 23 24 24 24 23
6 7 7 8 8 9 10 11 12 12 13 14 14 15 16 16 17 17 18 19 19 19 19 20 20 21 21 21 20 18 18 18 19 19 17 14 11 9 9 11 11 11 10 9 10 10 11 12 12 13 13 12 12 12 12 12 12 13 13 13 14 14 14 14 14 14 15 16 16 17 17 18 19 20 20 21 22 22 23 23 23 24 24 23 23 23
8 8 9 9 10 11 12 13 13 14 14 15 16 16 17 17 18 18 19 19 19 19 19 20 20 21 21 22 21 20 19 19 19 19 17 14 11 8 8 9 10 10 10 9 9 11 12 12 13 13 13 13 13 13 13 13 13 14 14 14 14 14 14 14 14 14 15 16 16 17 18 19 19 20 21 22 22 23 23 24 24 24 24 24 24 24
9 10 11 11 12 13 14 14 15 15 16 16 17 17 18 18 19 19 19 19 20 20 20 21 21 22 22 22 22 20 18 18 18 18 17 15 11 8 7 8 10 10 10 9 10 11 12 13 13 13 13 13 13 13 14 14 14 14 14 14 13 13 13 13 13 14 15 16 17 18 19 19 20 21 22 22 23 24 24 25 25 26 26 26 27 27
12 12 13 14 14 15 15 16 17 17 17 18 18 18 19 19 20 20 20 20 21 21 22 22 23 23 22 22 20 18 15 15 16 17 17 15 12 8 7 9 10 10 10 9 10 11 12 13 13 13 13 13 13 14 14 14 14 14 14 13 12 12 12 12 13 14 16 17 18 18 19 20 20 21 22 22 23 24 25 25 26 27 27 28 28 28
15 15 16 16 16 17 17 18 18 19 19 19 19 20 20 20 20 21 21 22 22 22 23 23 23 22 21 20 18 15 13 13 14 15 16 17 14 10 8 10 11 11 10 10 10 11 12 12 12 12 12 13 13 14 14 14 14 13 12 11 11 10 11 12 13 15 16 17 18 18 19 19 20 20 21 22 23 23 24 25 26 27 27 28 28 29
16 17 17 17 17 17 17 18 18 18 19 19 19 19 19 20 20 21 22 22 22 22 23 23 22 21 20 19 17 14 11 11 13 14 16 17 16 13 11 11 11 11 10 10 10 11 11 11 11 11 12 12 13 14 14 13 13 12 10 10 9 10 11 12 14 15 16 16 17 18 18 18 19 20 20 21 22 23 24 25 26 26 27 28 28 28
16 16 16 16 16 16 15 15 16 16 17 17 17 17 18 19 20 21 22 22 22 22 22 22 21 20 19 17 14 12 9 10 11 14 15 17 17 15 12 11 11 11 11 10 10 11 11 11 11 11 12 12 13 13 12 11 10 10 9 9 9 11 12 13 14 14 15 16 16 17 17 18 19 19 20 21 22 23 24 25 26 26 27 28 28 29
16 15 14 14 13 13 13 14 14 15 15 15 16 17 18 18 19 20 20 20 20 20 20 20 19 18 16 14 12 10 8 9 10 12 14 16 17 15 12 11 11 12 12 11 11 11 12 12 12 11 12 12 12 11 10 10 9 8 9 9 11 12 12 13 13 14 15 15 16 16 17 18 19 19 20 21 22 23 24 25 26 26 27 28 29 30
16 15 13 13 12 13 13 14 15 15 15 15 16 17 17 18 18 19 19 19 19 18 18 18 18 16 14 12 11 10 9 9 10 12 13 15 15 15 13 12 12 14 15 14 14 14 14 14 13 12 12 11 10 10 9 9 9 9 10 11 12 13 13 13 14 14 14 15 16 16 17 18 19 20 21 21 22 23 24 25 25 26 27 28 29 29
16 14 13 13 13 14 15 15 16 16 16 16 16 16 17 18 18 19 19 19 18 18 17 17 17 16 15 13 12 12 11 10 10 11 12 13 14 14 14 14 15 16 18 18 17 16 16 15 14 13 12 11 10 9 9 9 10 11 13 13 14 14 14 14 14 14 15 15 16 17 17 18 19 20 21 22 22 23 24 24 25 26 26 27 28 29
15 14 14 14 15 16 16 17 17 17 17 16 16 16 17 18 19 19 19 18 18 17 17 16 16 15 15 15 15 14 13 11 10 10 11 12 14 15 15 16 17 18 20 21 20 18 16 15 14 12 11 11 10 10 11 12 13 14 15 16 16 16 15 15 15 15 15 15 16 17 18 19 19 20 21 22 22 23 24 24 24 25 26 27 27 28
14 14 15 15 16 17 18 18 18 18 17 17 17 17 17 18 19 19 18 17 16 16 16 15 15 15 15 16 16 16 15 11 10 10 11 13 15 16 17 17 18 18 19 21 22 21 18 14 12 12 12 12 12 13 15 16 16 17 17 17 17 17 17 16 16 16 16 16 17 17 18 19 19 20 21 21 22 22 23 23 24 25 26 26 27 27
13 14 15 15 16 17 17 18 18 18 18 18 17 17 17 17 17 16 16 15 15 15 15 15 15 15 15 15 17 18 17 12 10 11 12 14 16 17 18 18 18 18 18 19 21 22 21 17 13 12 14 15 16 16 17 17 18 18 18 18 18 18 18 18 18 18 18 18 18 18 19 19 19 20 20 21 21 21 22 22 23 24 25 26 26 27
13 14 14 15 16 16 17 17 17 18 18 17 17 16 16 15 15 15 14 14 14 14 14 15 15 15 15 15 16 18 18 14 12 13 13 15 17 17 18 19 19 18 17 17 18 19 20 20 19 17 17 18 18 18 18 18 18 18 19 19 19 19 19 20 20 20 19 19 19 19 19 19 19 19 19 20 20 20 21 21 22 23 24 24 25 26
13 13 14 15 15 16 16 16 17 17 17 16 16 15 15 14 14 14 14 14 14 14 15 15 16 16 16 16 17 17 17 15 14 13 14 15 17 18 18 19 20 19 18 17 17 17 18 22 22 22 21 20 20 20 19 19 19 20 20 20 20 20 20 20 20 20 20 20 19 19 18 18 18 18 18 18 19 19 19 20 20 21 22 23 23 24
13 13 13 14 14 15 15 15 15 16 16 15 15 14 14 14 14 14 14 14 15 15 15 15 16 16 16 17 17 18 17 16 14 14 15 16 18 19 20 20 21 20 20 19 18 18 19 20 22 23 23 22 21 21 21 21 21 21 21 21 21 21 20 20 20 20 20 19 18 18 17 17 17 17 17 17 17 18 18 18 19 19 20 21 22 23
13 13 13 13 13 14 14 14 14 14 15 14 14 14 14 14 14 14 14 14 15 15 15 15 15 15 16 17 18 19 18 16 15 15 17 18 19 20 21 21 21 21 21 20 20 20 21 21 21 23 24 24 23 22 21 22 22 22 21 21 21 21 20 20 20 19 19 18 18 17 16 16 15 15 16 16 16 17 17 18 18 18 18 19 20 21
14 14 13 13 13 13 13 13 14 14 14 14 14 13 14 14 14 14 14 14 14 14 14 14 15 15 16 17 18 19 19 17 16 17 18 19 20 21 23 22 21 20 21 21 21 21 22 22 23 23 24 25 25 24 22 22 22 22 22 21 21 20 20 19 19 19 19 18 18 17 16 15 15 15 15 16 16 17 17 17 17 17 18 18 19 20
15 14 14 14 14 14 13 13 13 14 14 14 13 13 14 14 14 14 13 13 13 13 14 14 15 16 17 17 18 19 19 18 18 18 19 19 20 21 23 22 20 20 21 22 22 22 22 23 24 24 24 25 25 25 24 23 23 23 23 22 21 21 20 20 19 19 20 19 19 18 17 16 16 16 16 16 17 17 18 18 17 17 17 18 19 20
15 15 14 14 14 14 13 13 13 14 14 14 13 13 13 14 13 13 13 13 13 14 15 15 16 17 18 19 19 20 20 20 20 20 20 20 20 21 22 22 20 20 20 21 21 21 22 23 24 24 25 25 25 25 25 25 25 25 24 23 23 22 21 21 21 21 21 20 20 19 18 17 17 17 17 17 18 18 18 18 18 17 17 18 19 19
16 15 15 15 14 14 13 13 13 13 14 13 13 13 12 12 12 12 13 13 14 15 15 16 17 18 18 19 20 20 21 21 20 20 20 20 20 20 21 21 21 20 20 21 21 21 21 22 22 23 24 25 25 26 26 26 26 26 26 26 25 24 23 23 23 22 22 21 20 19 18 17 17 17 17 18 18 19 19 19 18 18 18 18 19 19
16 16 16 15 14 13 13 13 13 13 13 13 12 12 11 12 12 12 13 14 15 15 16 17 18 18 18 19 19 20 20 20 20 19 19 19 19 20 20 20 21 21 21 21 22 22 21 21 21 22 23 24 25 26 26 27 27 27 28 28 28 27 25 25 24 24 23 22 21 20 19 18 17 17 17 18 18 19 19 19 19 19 18 18 19 20
17 16 16 15 14 13 13 12 12 12 12 12 11 11 11 12 12 13 13 14 15 16 17 18 18 19 19 19 19 19 18 18 18 18 18 18 18 19 19 20 20 20 21 21 21 21 20 20 20 21 22 23 24 26 27 27 27 28 28 29 29 29 28 27 25 24 23 22 21 19 19 18 17 17 17 18 18 19 19 19 19 19 19 19 19 20
16 16 15 14 13 13 12 12 11 11 11 11 11 11 11 12 12 13 13 14 15 16 17 17 18 19 19 19 18 18 17 17 16 16 16 17 17 18 18 18 19 19 19 19 19 19 19 19 19 20 21 22 23 26 27 28 28 28 28 29 29 30 29 27 25 24 23 22 20 19 18 18 17 18 18 19 19 19 19 19 19 19 20 20 20 20
15 15 14 13 13 12 12 11 11 11 11 11 11 11 12 12 13 13 14 15 16 16 17 18 18 19 19 19 18 17 16 15 15 14 14 14 15 15 16 16 17 17 17 17 17 17 18 18 19 20 21 22 23 25 28 29 29 29 28 28 28 29 29 28 25 23 22 21 19 18 18 18 18 19 20 20 21 20 20 20 20 20 20 20 20 20
14 13 13 12 12 12 11 11 11 11 11 11 11 12 12 12 13 14 15 16 17 18 18 19 19 18 18 18 17 16 15 13 12 12 11 12 12 13 13 14 14 15 15 15 15 16 17 18 19 20 21 22 23 25 27 29 29 29 28 27 26 27 27 27 25 22 21 20 19 19 18 18 19 20 21 22 22 22 22 22 22 21 21 21 21 21
13 12 12 12 11 11 11 11 11 11 12 12 12 12 12 13 14 15 16 17 18 18 18 18 18 17 17 17 16 15 14 12 10 9 9 9 10 10 11 11 12 12 13 14 14 15 16 18 19 20 21 22 24 25 27 28 28 28 28 26 25 25 25 24 23 22 22 21 20 20 19 19 20 22 23 24 24 24 24 24 25 24 24 23 23 23
13 12 12 11 11 11 11 11 12 12 12 12 12 12 12 13 14 15 17 17 18 18 18 18 17 16 17 16 16 14 13 11 9 7 6 6 7 8 9 9 10 11 12 13 14 15 17 18 19 20 21 23 24 26 27 27 27 27 26 25 24 24 24 23 22 22 22 22 22 21 20 21 22 24 25 26 27 27 27 27 27 27 26 26 25 25
13 12 12 11 11 11 11 12 12 12 12 12 12 12 13 14 15 16 17 18 17 17 17 17 16 16 16 15 14 13 12 11 9 7 6 5 6 6 7 8 9 10 11 13 15 16 18 19 19 20 21 22 24 26 26 25 25 25 25 24 24 24 24 24 24 23 23 23 23 23 23 23 24 25 27 28 29 29 29 28 28 27 27 27 26 26
12 12 11 11 11 11 11 11 11 11 11 11 12 13 14 15 16 17 17 17 17 16 16 16 15 15 15 14 13 13 12 11 10 8 7 6 6 6 7 8 10 11 13 15 16 18 19 19 20 20 20 21 23 25 25 24 23 23 23 23 23 24 25 26 25 24 24 24 24 24 24 25 26 27 28 29 31 31 31 30 29 28 27 27 26 26
11 11 11 11 11 10 10 11 11 11 11 12 12 14 14 15 16 16 16 16 16 16 16 15 15 15 15 14 13 12 11 11 10 9 8 8 8 9 10 12 13 15 16 17 18 19 20 20 20 20 20 20 21 22 23 23 22 22 22 23 24 25 26 27 26 26 26 26 26 26 25 26 26 27 28 30 31 32 32 31 30 28 27 26 25 23
11 11 11 10 10 10 10 10 10 11 11 12 14 14 15 15 15 15 15 15 15 15 15 15 15 15 14 14 13 12 11 10 9 9 9 9 10 12 13 15 16 16 17 18 19 19 20 21 21 21 20 19 19 20 21 22 22 23 23 24 25 25 26 27 27 26 26 26 26 26 26 26 27 27 28 29 31 33 33 33 31 29 27 24 22 21
10 10 10 10 10 9 9 10 10 11 12 13 14 15 15 14 14 13 14 14 14 15 15 15 15 15 14 14 14 13 12 11 11 10 11 11 12 13 14 15 16 16 17 18 19 19 20 21 22 21 20 18 17 17 18 20 22 23 24 25 25 25 26 27 27 27 27 27 27 27 27 28 28 28 28 29 31 32 33 33 31 29 27 24 22 21
Wind_Direction
281 284 285 287 288 290 290 288 285 280 274 269 266 264 265 266 267 268 269 270 272 273 274 274 272 269 265 262 260 261 262 264 266 267 269 271 273 274 275 275 274 273 271 270 269 269 269 269 270 272 273 274 274 275 276 276 276 275 274 273 271 270 268 267 265 264 263 261 259 258 259 258 258 258 259 260 262 263 263 263 263 263 262 264 267 269
282 285 288 290 292 293 294 291 288 284 279 274 271 269 268 268 269 269 269 270 271 271 270 268 265 262 259 259 260 261 263 265 266 268 269 271 272 272 271 270 269 267 267 266 266 266 267 268 269 270 272 273 275 275 276 277 277 277 276 276 275 274 272 271 270 269 267 265 263 261 261 262 262 264 265 266 267 267 267 266 266 265 265 266 268 269
283 288 290 292 293 294 293 291 289 285 281 277 273 270 268 267 267 267 267 267 266 264 262 260 258 257 257 259 261 262 264 266 267 268 269 269 268 267 266 264 263 263 263 263 264 265 266 266 267 268 268 270 271 272 273 274 275 277 278 279 279 279 279 278 278 278 277 276 274 272 270 269 269 269 269 269 269 269 268 267 267 267 267 267 267 268
284 288 290 292 292 292 291 290 287 283 278 273 269 266 264 263 262 261 260 259 257 255 254 254 254 256 258 260 262 263 264 265 266 266 265 264 263 262 261 261 261 262 262 263 263 263 264 265 265 265 266 266 267 268 270 272 274 276 278 280 279 279 279 280 280 281 281 282 281 281 279 277 275 273 272 271 270 269 268 266 265 265 266 265 265 267
285 288 289 291 291 290 288 286 282 277 271 267 263 260 258 256 255 253 251 249 249 249 251 253 255 258 260 261 261 262 262 262 261 260 260 260 260 261 262 263 264 264 264 264 264 264 264 264 265 265 265 266 267 268 270 272 273 273 273 273 273 273 273 274 274 275 276 277 278 279 279 278 277 276 275 275 274 272 270 268 266 265 265 265 265 266
286 287 287 289 289 287 284 279 274 269 263 260 257 254 252 250 248 246 245 246 248 250 253 256 258 260 261 260 260 260 260 260 259 258 259 260 263 265 266 267 268 268 268 266 265 264 264 263 264 265 266 266 267 267 268 268 267 266 266 266 267 268 269 270 271 271 272 273 273 275 276 277 277 278 278 277 277 276 274 273 271 270 270 269 269 270
288 287 287 287 285 282 277 270 265 260 255 252 250 249 247 245 245 244 246 248 251 254 257 259 260 260 259 259 259 260 260 260 260 261 263 266 268 270 271 271 271 271 269 267 264 262 261 260 261 262 263 263 262 262 262 262 262 262 264 266 268 270 271 272 273 274 275 275 276 277 278 279 280 281 281 280 279 278 277 276 275 275 274 274 274 274
294 290 287 283 279 274 268 262 258 254 251 248 246 246 246 246 247 249 251 254 256 258 259 259 259 257 256 258 259 261 262 264 267 270 272 273 274 275 275 275 274 272 268 264 260 256 253 252 253 255 255 256 256 257 258 260 262 264 267 269 272 273 275 276 277 278 279 279 280 280 281 281 282 282 282 282 281 280 279 278 278 277 277 276 276 275
296 287 282 277 270 263 258 255 253 251 249 249 249 249 250 251 254 257 259 259 260 259 257 255 254 255 256 259 263 266 270 273 277 279 280 281 281 281 280 279 276 271 266 260 254 250 247 247 248 249 251 252 254 256 259 261 264 267 270 272 274 275 277 278 278 279 280 280 281 281 281 282 282 283 283 283 282 282 281 281 280 279 278 277 276 275
284 272 268 265 262 257 252 251 252 253 253 254 255 256 256 257 258 259 257 257 258 259 257 257 259 263 265 266 268 272 276 280 282 284 285 285 285 285 283 280 276 270 264 258 254 251 251 251 252 253 254 255 257 258 261 263 266 269 271 273 275 276 277 277 278 279 279 280 280 281 281 282 282 282 282 283 282 283 283 283 282 282 280 279 278 277
272 264 259 258 259 259 257 255 256 258 260 261 263 264 263 259 257 258 259 262 265 266 268 269 270 270 270 271 274 278 282 285 286 286 286 285 285 284 282 278 273 267 262 258 256 256 256 257 258 258 258 259 259 261 262 264 266 269 271 272 274 275 276 277 278 278 279 279 280 280 280 281 281 281 281 282 282 283 283 284 284 283 283 282 281 280
273 270 268 266 266 266 265 263 263 265 265 264 262 261 260 260 260 263 271 279 281 279 275 272 271 271 273 278 282 286 289 290 290 289 287 286 284 281 278 273 268 263 258 256 256 257 258 259 259 258 258 258 258 259 260 262 264 267 269 271 273 274 275 276 277 277 278 278 278 278 278 278 278 278 279 280 281 282 283 283 284 284 285 285 284 284
279 278 276 276 274 271 268 264 262 261 262 261 263 270 277 276 273 274 279 283 281 277 273 272 273 276 278 283 287 291 294 294 292 291 289 288 285 279 272 266 260 257 255 255 256 258 258 258 257 257 256 255 255 256 257 259 262 264 267 269 271 273 274 274 275 275 275 275 275 275 275 275 275 276 276 277 278 279 280 281 283 284 284 285 285 285
281 280 279 276 272 266 260 253 250 252 259 265 270 275 279 280 279 279 278 278 276 275 276 277 279 282 284 288 291 294 296 295 293 291 290 288 284 275 265 257 253 251 253 255 257 258 258 257 256 255 253 252 251 252 253 256 259 262 265 268 270 271 272 272 272 272 272 272 272 272 272 272 272 273 273 274 275 277 278 279 281 281 282 282 282 282
278 276 271 263 255 249 248 248 252 258 265 270 272 275 277 277 275 273 272 272 274 277 280 282 283 285 287 289 293 296 296 295 293 291 290 287 280 269 259 253 250 250 253 257 258 257 256 254 253 251 250 248 247 247 249 252 256 261 264 266 268 269 269 269 269 269 269 269 269 269 269 269 269 270 270 271 271 273 274 275 276 277 278 278 279 279
266 257 243 238 239 242 247 256 262 265 266 268 269 270 270 268 269 270 270 271 274 277 280 282 284 286 287 289 292 295 296 294 293 291 289 283 272 260 255 254 254 254 256 257 256 253 251 249 247 245 243 243 242 244 246 249 254 259 262 264 266 266 267 267 267 267 266 266 266 267 267 267 268 268 269 269 270 271 272 273 274 275 277 278 279 279
249 241 237 239 246 252 255 259 262 263 264 265 266 266 266 267 268 270 271 272 275 278 280 283 286 288 290 290 292 295 296 295 293 291 288 280 266 254 254 258 260 259 256 253 249 246 243 241 240 240 239 240 240 242 244 249 253 258 261 263 265 265 266 266 267 267 267 267 267 267 268 268 269 269 270 271 272 273 274 275 276 277 278 279 280 281
246 247 252 255 259 260 260 260 261 263 265 265 267 268 269 270 271 273 274 275 277 280 282 285 288 289 292 294 296 297 300 297 295 293 288 278 264 254 256 260 261 259 251 244 239 237 236 236 236 237 238 238 240 242 244 248 253 257 261 263 265 266 266 267 268 268 269 270 270 270 270 271 271 272 273 274 275 276 277 277 278 279 280 281 282 283
260 262 264 265 265 265 265 264 264 265 267 268 270 272 273 274 274 276 277 278 280 282 284 286 288 289 290 293 295 298 302 299 296 294 290 279 265 257 261 261 259 254 244 236 232 233 234 235 236 238 239 240 241 243 245 249 254 258 262 264 266 267 268 268 269 270 271 272 272 273 274 274 274 274 274 275 275 276 277 277 278 279 279 280 281 281
268 268 269 270 270 270 268 268 270 271 272 274 276 276 276 277 278 279 280 281 282 283 284 285 286 287 289 292 295 298 302 300 297 293 289 279 267 259 264 263 257 248 237 231 231 233 234 235 237 239 240 242 243 244 247 251 256 260 264 266 268 269 270 271 271 273 274 275 276 276 276 276 276 276 275 276 276 276 276 276 275 274 274 274 274 274
266 266 267 268 269 270 270 272 273 274 276 277 278 278 279 280 281 281 282 283 283 284 284 284 285 287 289 292 295 299 301 299 295 293 289 278 266 258 266 267 262 251 237 232 232 234 235 236 237 239 241 242 244 246 250 254 259 263 266 268 270 271 272 274 276 277 278 279 278 278 278 278 278 278 278 278 278 279 278 278 277 275 274 273 272 272
270 269 269 269 269 270 271 273 275 276 277 278 279 279 280 281 282 282 283 283 283 283 283 284 285 287 289 292 294 297 299 295 292 291 289 281 269 259 272 274 269 259 245 236 234 235 235 235 236 239 242 244 247 250 254 258 263 266 269 270 272 273 275 278 280 281 281 281 280 280 279 279 279 280 280 280 280 281 281 280 280 279 278 277 276 275
275 274 273 273 272 272 273 275 276 278 278 278 279 280 281 282 283 284 283 283 283 283 284 284 285 287 288 290 292 293 294 292 289 288 287 281 274 270 276 278 274 265 252 244 240 237 233 233 236 240 246 250 253 257 260 264 267 269 270 271 272 276 280 283 284 284 282 282 281 280 280 280 280 280 280 280 281 281 281 281 280 280 280 279 279 278
274 274 275 275 276 276 276 277 278 278 279 280 281 282 283 283 283 283 283 283 283 283 284 285 286 286 286 287 287 287 287 286 284 284 284 281 277 277 281 282 277 267 256 251 248 245 239 237 241 249 256 260 262 264 266 268 269 269 269 271 276 282 286 287 287 285 283 282 281 280 280 280 280 280 280 280 281 281 281 281 280 280 280 279 278 278
278 278 279 280 280 280 280 280 280 280 282 283 283 283 282 282 282 282 282 283 285 286 286 286 287 286 285 283 282 280 277 274 277 280 283 283 281 280 283 286 282 273 263 257 256 256 255 253 256 262 267 269 269 269 269 269 268 268 270 276 283 289 291 291 289 286 284 282 281 280 280 280 281 281 281 282 282 282 282 281 281 280 280 279 278 277
288 288 288 286 285 283 281 280 280 281 283 284 284 284 284 283 283 283 284 285 287 289 290 291 290 289 285 281 276 272 267 267 273 279 283 285 284 283 286 290 288 282 275 272 272 275 275 273 273 276 277 275 273 271 270 269 269 272 279 286 291 295 296 294 291 288 285 283 281 281 280 281 281 281 282 282 282 282 282 282 282 281 280 279 278 278
295 296 294 290 286 283 280 278 278 278 278 279 282 284 285 284 283 282 282 283 285 288 290 291 291 290 288 284 278 274 271 274 279 283 284 285 285 287 292 295 296 293 290 288 289 291 291 290 289 288 285 282 279 276 275 276 279 285 291 295 299 300 300 298 294 290 286 283 281 280 280 280 280 281 281 281 282 282 282 282 282 281 280 280 279 279
293 294 292 288 285 282 280 278 277 276 276 277 278 281 281 281 280 279 278 280 283 284 284 285 286 288 289 289 286 282 281 288 291 289 286 286 287 291 297 300 301 302 300 299 298 297 298 298 297 294 290 287 285 285 287 290 294 298 301 303 303 303 302 299 296 291 287 283 280 279 278 278 279 279 280 280 281 281 281 281 281 281 281 280 281 282
288 289 288 286 284 283 282 281 280 280 280 280 280 280 279 278 277 277 279 281 281 280 279 281 283 286 288 290 289 288 289 298 300 296 292 290 292 295 298 300 303 305 304 303 301 299 299 300 299 295 292 291 293 296 299 302 304 305 306 305 305 304 302 300 296 292 288 284 281 279 278 278 278 278 279 280 280 280 280 281 281 281 281 281 282 284
283 283 282 282 282 282 283 283 284 284 284 284 283 281 279 277 277 278 280 280 279 277 277 279 282 284 287 289 291 291 295 303 306 302 299 296 294 295 297 299 301 304 305 306 305 303 302 301 298 296 295 296 299 302 304 305 306 306 305 305 304 303 302 300 298 294 291 287 284 282 280 279 279 279 279 279 279 279 279 279 280 280 281 282 283 284
280 279 279 279 279 280 282 283 284 285 285 284 283 281 279 276 276 276 277 277 276 275 277 278 279 281 283 287 289 291 296 304 306 303 302 296 293 294 297 298 300 303 306 308 308 308 306 304 298 294 295 297 299 301 303 304 305 305 305 304 304 304 304 303 301 298 295 292 289 286 284 282 280 279 278 277 277 277 277 278 278 279 280 281 282 283
281 279 279 279 280 280 281 282 283 283 283 282 281 279 277 274 273 272 272 272 272 272 273 274 276 277 280 282 284 287 294 300 303 302 300 295 294 295 297 299 301 303 305 307 306 305 303 304 301 298 297 299 300 301 302 304 305 306 306 306 306 306 306 305 304 302 299 296 293 289 286 283 281 278 277 275 274 274 274 275 276 277 278 280 281 281
283 280 279 280 280 281 281 281 281 281 280 279 277 276 273 271 269 267 266 266 267 268 269 272 274 277 280 282 284 287 293 298 301 301 300 296 295 295 298 300 302 304 305 305 304 301 299 301 302 302 302 302 303 303 304 305 307 308 308 308 308 307 307 306 304 303 300 297 294 291 287 284 280 277 275 273 272 272 272 273 274 276 277 279 280 281
286 283 282 280 280 280 280 280 280 278 277 275 273 271 268 265 264 263 263 263 265 267 268 271 274 277 281 283 286 289 294 298 300 301 299 295 294 294 297 299 301 303 305 304 303 302 300 300 302 303 303 302 302 304 305 307 308 309 309 309 308 308 307 305 304 302 300 297 295 291 288 283 279 276 273 271 270 270 271 272 273 275 276 277 279 281
292 289 286 284 283 282 281 281 279 277 275 272 269 266 263 262 261 261 262 263 265 268 271 274 277 280 282 284 287 290 294 297 298 296 294 291 291 293 294 296 298 301 302 302 302 301 300 300 300 301 301 301 301 303 305 307 308 309 309 309 308 307 306 305 303 301 299 297 294 291 287 283 278 275 272 271 271 271 272 273 274 274 275 275 275 276
296 294 292 289 287 286 284 282 280 277 274 270 266 263 262 262 262 263 264 266 269 272 275 279 282 285 286 287 288 290 293 295 294 291 288 288 288 289 290 292 295 297 297 297 298 298 298 298 299 299 300 300 301 303 305 307 307 307 307 307 306 306 305 304 303 301 299 297 295 292 289 285 281 277 275 275 275 275 276 276 276 276 274 272 271 271
297 295 293 291 290 288 286 283 280 277 274 271 266 263 262 264 265 267 270 273 276 279 283 285 287 289 291 292 292 292 294 295 293 289 286 286 286 286 287 289 291 293 292 292 293 294 295 296 297 298 299 300 302 304 306 306 306 306 306 306 306 305 304 304 303 301 301 300 298 296 293 290 286 283 281 280 279 279 278 277 277 276 274 271 269 267
296 295 294 292 290 289 286 282 279 276 273 271 267 264 264 266 270 274 277 280 283 286 288 289 290 291 291 292 292 293 293 293 291 289 286 284 283 282 283 286 287 289 289 289 289 289 291 292 295 297 299 300 302 305 307 307 307 307 306 306 306 306 306 306 305 304 304 303 301 299 296 294 291 288 286 284 283 281 280 278 277 275 274 271 268 266
296 295 294 292 290 288 286 281 276 272 270 270 269 268 269 271 275 279 282 284 286 288 288 289 290 290 290 289 288 288 288 287 286 285 283 281 279 279 280 282 283 285 285 285 285 286 287 289 292 294 297 300 303 305 306 307 307 308 307 307 306 307 308 309 308 308 307 306 305 303 301 298 296 293 291 289 287 286 284 282 281 279 278 276 273 269
295 295 293 292 291 288 285 279 274 270 269 270 271 272 274 276 278 281 283 285 286 287 288 289 289 289 289 287 286 284 283 282 281 279 278 276 275 275 277 278 279 281 281 281 282 283 285 287 290 294 297 300 303 305 306 306 307 308 309 309 309 310 311 311 310 310 309 309 308 307 306 303 301 298 295 292 291 290 289 289 288 287 286 285 284 281
294 294 292 292 290 287 283 278 274 272 271 271 273 275 277 278 280 281 282 284 286 287 288 288 288 288 287 286 284 281 280 278 276 275 274 272 272 272 274 275 276 277 277 278 280 282 284 287 291 294 298 300 303 304 304 304 306 307 309 310 310 311 311 311 311 311 311 311 310 310 309 307 305 302 299 296 293 292 291 292 292 292 290 290 290 290
293 292 291 290 288 285 281 277 275 274 274 274 276 278 279 280 280 282 284 285 286 286 286 285 286 285 285 282 280 279 277 276 274 273 271 270 269 269 270 272 273 274 275 277 280 282 285 288 291 295 298 301 302 303 303 303 304 306 307 308 310 311 311 311 311 312 312 311 311 311 311 310 308 306 302 299 296 294 293 294 294 295 295 295 294 293
291 290 289 287 285 281 279 277 276 276 276 277 278 279 280 281 283 285 287 289 289 288 288 287 288 287 285 282 281 280 279 278 276 274 271 269 267 267 267 269 271 272 274 277 279 283 286 289 292 294 298 300 301 301 301 302 304 305 306 308 310 310 309 310 310 311 310 311 311 312 313 313 311 308 303 300 298 297 297 296 296 297 298 299 299 298
290 289 287 284 282 279 278 277 277 277 277 278 279 281 282 284 286 288 291 292 293 293 293 293 292 291 289 286 286 286 285 284 281 278 273 270 267 266 266 267 269 271 274 277 280 284 288 291 293 295 298 299 299 299 299 301 303 305 306 308 308 307 305 306 309 312 312 312 313 314 316 316 313 309 305 302 301 301 302 302 302 302 303 304 304 303
290 288 285 283 281 279 278 278 278 278 278 279 281 282 284 286 289 292 295 296 297 298 297 296 296 295 293 291 291 292 291 290 286 281 275 270 267 265 265 265 268 272 276 280 283 286 290 292 295 297 298 298 298 298 298 300 303 306 307 308 308 307 305 307 309 312 313 314 315 316 318 317 315 311 308 307 307 308 308 309 309 309 309 310 309 308
290 287 285 282 280 278 278 278 278 279 279 281 282 283 286 289 293 296 298 300 300 300 300 299 299 299 297 296 296 295 295 293 289 282 274 266 263 262 264 266 269 274 279 284 288 290 292 294 296 298 299 299 299 298 299 301 304 306 308 308 308 307 306 307 310 312 314 315 316 317 318 318 317 314 311 311 311 312 311 311 311 311 311 310 310 308
286 284 282 280 278 277 277 277 278 279 280 281 283 286 290 294 298 300 301 302 303 303 303 302 303 302 299 299 299 299 298 296 293 288 279 270 264 262 264 270 276 281 285 289 292 294 296 297 299 300 301 301 300 300 301 303 304 306 307 308 308 308 308 309 311 313 315 316 317 319 320 320 317 314 312 312 312 311 310 310 309 308 307 306 305 304
283 281 279 278 277 276 276 278 279 280 282 285 288 292 296 300 302 304 304 304 305 306 307 308 308 306 303 303 302 301 299 297 295 294 294 289 283 281 284 289 293 296 298 299 300 301 301 302 302 302 302 300 300 301 304 305 306 307 307 308 308 309 309 310 312 314 316 316 318 319 320 318 315 313 312 311 309 307 306 305 304 302 301 300 300 299
281 279 278 277 276 275 276 278 280 282 286 291 294 298 301 303 305 306 306 307 307 309 312 314 313 311 309 308 307 305 301 297 296 298 303 304 305 306 309 310 310 311 310 309 308 308 308 307 307 306 305 304 303 304 307 309 309 309 309 308 308 308 309 311 312 314 315 316 317 317 315 312 310 308 308 306 303 301 300 299 298 297 297 298 298 298
281 280 279 279 278 278 279 281 284 288 292 296 299 301 303 305 306 307 307 308 310 312 316 318 318 317 314 314 313 311 307 304 304 307 313 314 317 319 320 320 320 319 319 317 316 316 315 313 311 309 308 307 306 306 307 309 311 310 309 307 307 307 308 309 310 311 313 313 312 311 308 305 303 302 301 298 296 296 296 297 297 298 299 301 302 302
283 282 281 282 282 283 284 286 290 294 297 300 302 304 305 306 307 308 309 310 313 316 318 320 322 321 319 318 318 316 315 314 316 318 320 321 323 324 323 323 323 325 325 323 322 322 321 318 314 311 309 308 308 308 307 307 309 309 306 305 305 306 305 305 306 308 308 307 306 304 302 300 298 296 295 294 294 295 296 298 299 300 302 304 305 305